Weather History for KALO - August, 2013

Change the Weather History Date:

Saturday, August 31, 2013

  Actual Average Record
Temperature  
Mean Temperature 75 °F 69 °F  
Max Temperature 83 °F 80 °F 99 °F (2000)
Min Temperature 66 °F 57 °F 36 °F (1915)
Degree Days  
Heating Degree Days 0 1  
Month to date heating degree days 6 14  
Since 1 June heating degree days 58 46  
Since 1 July heating degree days 20 20  
Cooling Degree Days 10 5  
Month to date cooling degree days 220 208  
Year to date cooling degree days 696 712  
Since 1 June cooling degree days 643 656  
Growing Degree Days 25 (Base 50)    
Moisture  
Dew Point 69 °F    
Average Humidity 84    
Maximum Humidity 100    
Minimum Humidity 67    
Precipitation  
Precipitation 0.00 in 0.12 in 1.96 in (2010)
Month to date precipitation 2.00 4.27  
Year to date precipitation 34.29 26.28  
Snow  
Snow 0.00 in 0.00 in - ()
Month to date snowfall 0.0 0.0  
Since 1 June snowfall 0.0 0.0  
Since 1 July snowfall 0.0 0.0  
Snow Depth 0.00 in    
Sea Level Pressure  
Sea Level Pressure 29.82 in    
Wind  
Wind Speed 4 mph (NE)    
Max Wind Speed 13 mph    
Max Gust Speed 15 mph    
Visibility 10 miles    
Events Thunderstorm    
T = Trace of Precipitation, MM = Missing Value Source: NWS Daily Summary

Daily Weather History Graph

Daily Weather History Graph

Search for Another Location

Airport or City:

Trip Planner

Search our weather history database for the weather conditions in past years. The results will help you decide how hot, cold, wet, or windy it might be!

Date:

Astronomy

Aug. 31, 2013 Rise Set
Actual Time 6:33 AM CDT 7:45 PM CDT
Civil Twilight 6:04 AM CDT 8:14 PM CDT
Nautical Twilight 5:29 AM CDT 8:48 PM CDT
Astronomical Twilight 4:53 AM CDT 9:25 PM CDT
Moon 1:59 AM CDT (8/31) 4:47 PM CDT (8/31)
Length of Visible Light 14h 09m
Length of Day
13h 11m
Waning Crescent, 21% of the Moon is Illuminated
Aug 31
Waning Crescent
Sep 5
New
Sep 12
First Quarter
Sep 19
Full
Sep 26
Last Quarter

Hourly Weather History & Observations

Time (CDT) Temp. Heat Index Dew Point Humidity Pressure Visibility Wind Dir Wind Speed Gust Speed Precip Events Conditions
12:54 AM 73.9 °F - 71.1 °F 91% 29.80 in 10.0 mi NE 3.5 mph - 0.06 in Thunderstorm Mostly Cloudy
1:10 AM 73.4 °F - 69.8 °F 88% 29.82 in 10.0 mi North 4.6 mph - N/A   Partly Cloudy
1:54 AM 73.0 °F - 71.1 °F 93% 29.79 in 10.0 mi Calm Calm - N/A   Partly Cloudy
2:54 AM 71.1 °F - 69.1 °F 93% 29.78 in 10.0 mi North 4.6 mph - N/A   Partly Cloudy
3:54 AM 70.0 °F - 68.0 °F 93% 29.78 in 10.0 mi North 3.5 mph - N/A   Scattered Clouds
4:54 AM 69.1 °F - 68.0 °F 96% 29.78 in 10.0 mi NNE 3.5 mph - N/A   Clear
5:54 AM 68.0 °F - 66.9 °F 96% 29.80 in 10.0 mi NE 4.6 mph - N/A   Clear
6:54 AM 68.0 °F - 66.9 °F 96% 29.81 in 10.0 mi North 4.6 mph - N/A   Clear
7:18 AM 69.8 °F - 68.0 °F 94% 29.84 in 10.0 mi NNE 3.5 mph - N/A   Mostly Cloudy
7:48 AM 69.8 °F - 69.8 °F 100% 29.85 in 9.0 mi ENE 4.6 mph - N/A   Overcast
7:54 AM 71.1 °F - 69.1 °F 93% 29.83 in 8.0 mi ENE 8.1 mph - N/A   Overcast
8:49 AM 71.6 °F - 69.8 °F 94% 29.86 in 6.0 mi East 9.2 mph - N/A   Overcast
8:54 AM 72.0 °F - 70.0 °F 93% 29.84 in 8.0 mi East 8.1 mph - N/A   Overcast
9:27 AM 73.4 °F - 69.8 °F 88% 29.85 in 10.0 mi East 11.5 mph - N/A   Overcast
9:54 AM 73.0 °F - 70.0 °F 90% 29.83 in 10.0 mi ESE 9.2 mph - N/A   Overcast
10:35 AM 73.4 °F - 69.8 °F 88% 29.85 in 10.0 mi ESE 10.4 mph - N/A   Overcast
10:54 AM 73.9 °F - 70.0 °F 87% 29.84 in 10.0 mi East 5.8 mph - N/A   Overcast
11:51 AM 73.4 °F - 69.8 °F 88% 29.85 in 9.0 mi East 8.1 mph - N/A   Overcast
11:54 AM 73.0 °F - 70.0 °F 90% 29.84 in 9.0 mi East 8.1 mph - N/A   Overcast
12:45 PM 75.2 °F - 69.8 °F 83% 29.84 in 10.0 mi Variable 3.5 mph - N/A   Mostly Cloudy
12:54 PM 77.0 °F - 70.0 °F 79% 29.82 in 10.0 mi East 5.8 mph - N/A   Mostly Cloudy
1:30 PM 78.8 °F - 69.8 °F 74% 29.84 in 10.0 mi ENE 6.9 mph - N/A   Overcast
1:54 PM 79.0 °F - 70.0 °F 74% 29.83 in 10.0 mi NE 4.6 mph - N/A   Overcast
2:54 PM 78.1 °F - 69.1 °F 74% 29.82 in 10.0 mi Variable 3.5 mph - N/A   Overcast
3:54 PM 80.1 °F 82.7 °F 68.0 °F 67% 29.81 in 10.0 mi NE 4.6 mph - N/A   Mostly Cloudy
4:11 PM 80.6 °F 83.9 °F 69.8 °F 70% 29.82 in 10.0 mi NNE 4.6 mph - N/A   Scattered Clouds
4:25 PM 82.4 °F 86.3 °F 69.8 °F 66% 29.83 in 10.0 mi North 4.6 mph - N/A   Mostly Cloudy
4:52 PM 80.6 °F 83.2 °F 68.0 °F 65% 29.82 in 10.0 mi Calm Calm - N/A   Scattered Clouds
4:54 PM 81.0 °F 83.8 °F 68.0 °F 65% 29.80 in 10.0 mi Calm Calm - N/A   Partly Cloudy
5:54 PM 81.0 °F 83.8 °F 68.0 °F 65% 29.79 in 10.0 mi NW 3.5 mph - N/A   Clear
6:54 PM 81.0 °F 83.8 °F 68.0 °F 65% 29.77 in 10.0 mi Calm Calm - N/A   Clear
7:54 PM 73.0 °F - 69.1 °F 87% 29.79 in 10.0 mi NE 4.6 mph - N/A   Clear
8:54 PM 69.1 °F - 66.9 °F 93% 29.82 in 10.0 mi NE 5.8 mph - N/A   Clear
9:54 PM 70.0 °F - 68.0 °F 93% 29.82 in 10.0 mi Calm Calm - N/A   Clear
10:54 PM 69.1 °F - 66.9 °F 93% 29.83 in 10.0 mi Calm Calm - N/A   Clear
11:54 PM 66.9 °F - 66.0 °F 97% 29.80 in 9.0 mi Calm Calm - N/A   Clear